| time (UTC) | temp C | wind direction | speed KPH | gust KPH | rain 1hr cm | rain 24hr cm | rain mn cm | humidity % | barometer mb |
| 20260507180100 | 17 | 58 | 0.0 | 6.4 | 0.00 | 0.23 | 0.05 | 43 | 1012.6 |
| 20260507174557 | 17 | 140 | 1.6 | 6.4 | 0.00 | 0.23 | 0.05 | 45 | 1012.7 |
| 20260507173057 | 17 | 42 | 3.2 | 6.4 | 0.00 | 0.23 | 0.05 | 47 | 1013.0 |
| 20260507171554 | 16 | 51 | 0.0 | 4.8 | 0.00 | 0.23 | 0.05 | 49 | 1013.3 |
| 20260507170056 | 15 | 0 | 1.6 | 4.8 | 0.00 | 0.23 | 0.05 | 49 | 1013.5 |
| 20260507164624 | 15 | 240 | 1.6 | 3.2 | 0.00 | 0.23 | 0.05 | 50 | 1013.7 |
| 20260507163100 | 15 | 33 | 3.2 | 6.4 | 0.00 | 0.23 | 0.05 | 51 | 1013.9 |
| 20260507161607 | 14 | 101 | 1.6 | 9.7 | 0.00 | 0.23 | 0.05 | 55 | 1014.1 |
| 20260507160058 | 12 | 41 | 1.6 | 8.0 | 0.00 | 0.23 | 0.05 | 58 | 1014.2 |
| 20260507154555 | 12 | 0 | 0.0 | 4.8 | 0.00 | 0.23 | 0.05 | 59 | 1014.2 |
| 20260507153056 | 11 | 0 | 0.0 | 3.2 | 0.00 | 0.23 | 0.05 | 65 | 1014.5 |
| 20260507151601 | 11 | 90 | 0.0 | 3.2 | 0.00 | 0.23 | 0.05 | 63 | 1014.8 |
| 20260507150107 | 11 | 0 | 0.0 | 3.2 | 0.00 | 0.23 | 0.05 | 63 | 1014.8 |
| 20260507144605 | 11 | 78 | 0.0 | 3.2 | 0.00 | 0.30 | 0.05 | 66 | 1015.2 |
| 20260507143111 | 10 | 0 | 0.0 | 1.6 | 0.00 | 0.30 | 0.05 | 68 | 1015.3 |
| 20260507141624 | 10 | 60 | 0.0 | 4.8 | 0.00 | 0.30 | 0.05 | 68 | 1015.2 |
| 20260507140100 | 9 | 58 | 1.6 | 3.2 | 0.00 | 0.30 | 0.05 | 68 | 1015.3 |
| 20260507134608 | 9 | 132 | 1.6 | 6.4 | 0.00 | 0.46 | 0.05 | 71 | 1015.5 |
| 20260507133110 | 10 | 44 | 0.0 | 4.8 | 0.00 | 0.46 | 0.05 | 69 | 1015.8 |
| 20260507131613 | 9 | 0 | 1.6 | 8.0 | 0.00 | 0.46 | 0.05 | 68 | 1015.4 |
| 20260507130058 | 9 | 57 | 0.0 | 4.8 | 0.00 | 0.46 | 0.05 | 70 | 1015.3 |
| 20260507124557 | 9 | 0 | 0.0 | 1.6 | 0.00 | 0.69 | 0.05 | 73 | 1015.5 |
| 20260507123112 | 9 | 0 | 0.0 | 1.6 | 0.00 | 0.69 | 0.05 | 72 | 1015.7 |
| 20260507121557 | 9 | 71 | 0.0 | 4.8 | 0.00 | 0.69 | 0.05 | 71 | 1015.4 |
| 20260507120058 | 9 | 0 | 0.0 | 4.8 | 0.00 | 0.69 | 0.05 | 72 | 1015.3 |
| 20260507114559 | 9 | 108 | 0.0 | 4.8 | 0.00 | 0.84 | 0.05 | 75 | 1015.2 |
| 20260507113057 | 10 | 68 | 0.0 | 3.2 | 0.00 | 0.84 | 0.05 | 71 | 1015.1 |
| 20260507111557 | 10 | 0 | 0.0 | 4.8 | 0.00 | 0.84 | 0.05 | 74 | 1014.7 |
| 20260507110057 | 10 | 0 | 1.6 | 4.8 | 0.00 | 0.84 | 0.05 | 80 | 1014.9 |
| 20260507104600 | 10 | 0 | 0.0 | 1.6 | 0.00 | 0.84 | 0.05 | 83 | 1014.9 |
| 20260507103056 | 10 | 0 | 0.0 | 1.6 | 0.00 | 0.84 | 0.05 | 83 | 1014.5 |
| 20260507101557 | 10 | 75 | 0.0 | 3.2 | 0.00 | 0.84 | 0.05 | 83 | 1014.4 |
| 20260507100100 | 10 | 69 | 0.0 | 3.2 | 0.00 | 0.84 | 0.05 | 83 | 1014.3 |
| 20260507094554 | 10 | 0 | 0.0 | 3.2 | 0.00 | 0.84 | 0.05 | 83 | 1014.3 |
| 20260507093057 | 10 | 0 | 0.0 | 1.6 | 0.00 | 0.84 | 0.05 | 83 | 1014.2 |
| 20260507091556 | 10 | 84 | 1.6 | 3.2 | 0.00 | 0.84 | 0.05 | 83 | 1013.9 |
| 20260507090101 | 10 | 86 | 3.2 | 4.8 | 0.00 | 0.84 | 0.05 | 84 | 1013.9 |
| 20260507084601 | 10 | 112 | 1.6 | 4.8 | 0.00 | 0.84 | 0.05 | 86 | 1014.0 |
| 20260507083101 | 10 | 0 | 0.0 | 0.0 | 0.00 | 0.84 | 0.05 | 86 | 1013.9 |
| 20260507081603 | 10 | 0 | 0.0 | 1.6 | 0.00 | 0.84 | 0.05 | 87 | 1014.0 |
| 20260507080119 | 10 | 0 | 0.0 | 3.2 | 0.00 | 0.84 | 0.05 | 87 | 1013.7 |
| 20260507074604 | 10 | 91 | 1.6 | 6.4 | 0.00 | 0.84 | 0.05 | 87 | 1013.5 |
| 20260507073108 | 10 | 90 | 3.2 | 4.8 | 0.00 | 0.84 | 0.05 | 90 | 1013.5 |
| 20260507071559 | 10 | 60 | 1.6 | 4.8 | 0.03 | 0.84 | 0.05 | 92 | 1013.4 |
| 20260507070105 | 10 | 75 | 1.6 | 4.8 | 0.03 | 0.84 | 0.05 | 93 | 1013.5 |
| 20260507064631 | 10 | 70 | 1.6 | 6.4 | 0.03 | 0.84 | 0.05 | 93 | 1013.5 |
| 20260507063114 | 10 | 83 | 3.2 | 9.7 | 0.03 | 0.84 | 0.05 | 93 | 1013.5 |
| 20260507061559 | 10 | 63 | 3.2 | 8.0 | 0.00 | 0.81 | 0.03 | 93 | 1013.6 |
| 20260507060112 | 10 | 97 | 1.6 | 6.4 | 0.03 | 0.81 | 0.03 | 93 | 1013.6 |
| 20260507054606 | 10 | 91 | 1.6 | 6.4 | 0.03 | 0.81 | 0.03 | 93 | 1013.6 |
| 20260507053106 | 10 | 83 | 1.6 | 6.4 | 0.03 | 0.81 | 0.03 | 93 | 1013.6 |
| 20260507051607 | 11 | 116 | 1.6 | 6.4 | 0.03 | 0.81 | 0.03 | 92 | 1013.7 |
| 20260507050056 | 11 | 79 | 3.2 | 6.4 | 0.00 | 0.79 | 0.00 | 92 | 1013.7 |
| 20260507044559 | 11 | 44 | 3.2 | 8.0 | 0.08 | 0.79 | 0.00 | 92 | 1013.2 |
| 20260507043057 | 11 | 101 | 1.6 | 3.2 | 0.08 | 0.79 | 0.00 | 93 | 1014.0 |
| 20260507041556 | 11 | 75 | 0.0 | 4.8 | 0.08 | 0.79 | 0.00 | 93 | 1013.2 |
| 20260507040057 | 12 | 86 | 4.8 | 9.7 | 0.08 | 0.79 | 0.00 | 91 | 1013.6 |
| 20260507034554 | 12 | 100 | 1.6 | 4.8 | 0.03 | 0.71 | 0.71 | 91 | 1013.5 |
| 20260507033055 | 12 | 63 | 1.6 | 6.4 | 0.03 | 0.71 | 0.71 | 91 | 1012.9 |
| 20260507031554 | 13 | 77 | 3.2 | 6.4 | 0.03 | 0.71 | 0.71 | 91 | 1013.1 |
| 20260507030055 | 13 | 50 | 3.2 | 6.4 | 0.03 | 0.71 | 0.71 | 91 | 1013.4 |
| 20260507024559 | 13 | 99 | 3.2 | 6.4 | 0.00 | 0.69 | 0.69 | 89 | 1012.9 |
| 20260507023054 | 13 | 108 | 3.2 | 9.7 | 0.00 | 0.69 | 0.69 | 88 | 1012.6 |
| 20260507021557 | 14 | 70 | 3.2 | 11.3 | 0.00 | 0.69 | 0.69 | 88 | 1012.7 |
| 20260507020115 | 14 | 86 | 4.8 | 8.0 | 0.00 | 0.69 | 0.69 | 90 | 1012.8 |
| 20260507014559 | 14 | 89 | 3.2 | 6.4 | 0.00 | 0.69 | 0.69 | 93 | 1012.7 |
| 20260507013059 | 15 | 81 | 3.2 | 4.8 | 0.00 | 0.69 | 0.69 | 93 | 1012.6 |
| 20260507011556 | 15 | 47 | 3.2 | 6.4 | 0.00 | 0.69 | 0.69 | 94 | 1012.8 |
| 20260507010109 | 15 | 94 | 1.6 | 8.0 | 0.00 | 0.69 | 0.69 | 94 | 1013.1 |
| 20260507004555 | 16 | 87 | 1.6 | 4.8 | 0.00 | 0.69 | 0.69 | 95 | 1012.8 |
| 20260507003055 | 16 | 68 | 1.6 | 3.2 | 0.00 | 0.69 | 0.69 | 95 | 1012.6 |
| 20260507001558 | 16 | 78 | 0.0 | 3.2 | 0.03 | 0.69 | 0.69 | 95 | 1012.7 |
| 20260507000100 | 16 | 77 | 1.6 | 3.2 | 0.08 | 0.69 | 0.69 | 95 | 1012.3 |
| 20260506234600 | 16 | 68 | 0.0 | 1.6 | 0.08 | 0.69 | 0.69 | 94 | 1012.1 |
| 20260506233055 | 17 | 0 | 0.0 | 1.6 | 0.08 | 0.69 | 0.69 | 92 | 1012.0 |
| 20260506231609 | 17 | 121 | 0.0 | 1.6 | 0.05 | 0.66 | 0.66 | 90 | 1011.7 |
| 20260506230116 | 18 | 0 | 0.0 | 1.6 | 0.00 | 0.61 | 0.61 | 87 | 1011.4 |
| 20260506224603 | 18 | 0 | 0.0 | 1.6 | 0.00 | 0.61 | 0.61 | 86 | 1011.4 |
| 20260506223103 | 18 | 0 | 0.0 | 4.8 | 0.00 | 0.61 | 0.61 | 86 | 1011.2 |
| 20260506221624 | 18 | 266 | 0.0 | 4.8 | 0.00 | 0.61 | 0.61 | 85 | 1011.1 |
| 20260506220120 | 18 | 203 | 1.6 | 6.4 | 0.00 | 0.61 | 0.61 | 83 | 1011.0 |
| 20260506214558 | 18 | 204 | 1.6 | 4.8 | 0.00 | 0.61 | 0.61 | 84 | 1010.9 |
| 20260506213110 | 18 | 259 | 0.0 | 8.0 | 0.00 | 0.61 | 0.61 | 83 | 1011.0 |
| 20260506211559 | 19 | 267 | 1.6 | 9.7 | 0.00 | 0.61 | 0.61 | 82 | 1010.9 |
| 20260506210105 | 19 | 115 | 0.0 | 9.7 | 0.00 | 0.61 | 0.61 | 82 | 1010.8 |
| 20260506204605 | 19 | 229 | 0.0 | 6.4 | 0.00 | 0.61 | 0.61 | 81 | 1010.6 |
| 20260506203100 | 19 | 189 | 1.6 | 6.4 | 0.00 | 0.61 | 0.61 | 82 | 1010.4 |
| 20260506201556 | 18 | 137 | 0.0 | 19.3 | 0.00 | 0.61 | 0.61 | 82 | 1010.7 |
| 20260506200055 | 18 | 333 | 1.6 | 8.0 | 0.00 | 0.61 | 0.61 | 84 | 1010.6 |
| 20260506194557 | 18 | 98 | 1.6 | 8.0 | 0.00 | 0.61 | 0.61 | 85 | 1010.7 |
| 20260506193054 | 18 | 148 | 1.6 | 16.1 | 0.00 | 0.61 | 0.61 | 84 | 1010.7 |
| 20260506191611 | 18 | 253 | 1.6 | 9.7 | 0.00 | 0.61 | 0.61 | 84 | 1010.8 |
| 20260506190058 | 17 | 225 | 4.8 | 20.9 | 0.00 | 0.61 | 0.61 | 85 | 1010.9 |
| 20260506184625 | 17 | 293 | 3.2 | 12.9 | 0.00 | 0.61 | 0.61 | 86 | 1010.9 |
| 20260506183115 | 17 | 10 | 3.2 | 8.0 | 0.00 | 0.61 | 0.61 | 87 | 1011.1 |
| 20260506181602 | 16 | 90 | 1.6 | 14.5 | 0.00 | 0.61 | 0.61 | 88 | 1011.2 |